Location: Saddleback Butte
(34.6776°N, 117.8050°W)
Time: 13:17:20
(UTC-07:00)

Iridium 35 - Visible Passes

Search period start: 30 September 2016 00:00
Search period end: 10 October 2016 00:00
Orbit: 776 x 779 km, 86.4° (Epoch: 29 September)

Date Brightness Start Highest point End Pass type
(mag) Time Alt. Az. Time Alt. Az. Time Alt. Az.
30 Sep 6.7 04:04:28 18° SE 04:07:31 31° E 04:12:04 10° NNE visible
30 Sep 6.0 05:45:04 14° SW 05:48:11 24° W 05:52:22 10° NNW visible
01 Oct 7.6 03:32:29 14° ESE 03:34:15 17° E 03:37:27 10° NE visible
01 Oct 5.2 05:13:02 36° SW 05:14:31 45° W 05:19:31 10° NNW visible
02 Oct 4.9 04:40:46 84° SSW 04:40:58 89° W 04:46:12 10° N visible
03 Oct 6.0 04:08:21 43° ENE 04:08:21 43° ENE 04:12:30 10° NNE visible
03 Oct 6.5 05:48:52 16° WNW 05:48:52 16° WNW 05:51:40 10° NW visible
04 Oct 7.3 03:35:46 21° ENE 03:35:46 21° ENE 03:38:21 10° NNE visible
04 Oct 6.1 05:16:18 26° NW 05:16:18 26° NW 05:19:18 10° NNW visible
05 Oct 8.1 03:03:07 10° NE 03:03:07 10° NE 03:03:08 10° NE visible
05 Oct 6.2 04:43:38 29° NNW 04:43:38 29° NNW 04:46:15 10° N visible
06 Oct 6.9 04:10:53 23° N 04:10:53 23° N 04:12:46 10° N visible
07 Oct 7.6 03:38:04 14° NNE 03:38:04 14° NNE 03:38:55 10° NNE visible
07 Oct 7.2 05:18:35 11° NNW 05:18:35 11° NNW 05:18:50 10° NNW visible
08 Oct 7.3 04:45:42 12° NNW 04:45:42 12° NNW 04:46:08 10° NNW visible
09 Oct 7.6 04:12:47 11° N 04:12:47 11° N 04:12:54 10° N visible
